{"data":{"norad_id":60351,"epoch":"2026-05-25T02:52:59.168928Z","epoch_age_seconds":75341,"freshness":"FRESH","line1":"1 60351U 24136Y   26145.12012927 -.00001850  00000+0 -43657-4 0  9997","line2":"2 60351  53.1617  79.4276 0001377 103.5489 256.5667 15.34375025101388","mean_motion":15.34375025,"eccentricity":0.0001377,"inclination_deg":53.1617,"raan_deg":79.4276,"arg_perigee_deg":103.5489,"mean_anomaly_deg":256.5667,"bstar":-4.3657e-5,"rev_number":10138,"period_min":93.84928563993,"perigee_km":461.83547825441,"apogee_km":463.71946610005,"semimajor_km":6840.9144721772,"source":"CELESTRAK","updated_at":"2026-05-25T13:38:19.237416Z"}}